EDT,Max TemperatureF,Mean TemperatureF,Min TemperatureF,Max Dew PointF,MeanDew PointF,Min DewpointF,Max Humidity, Mean Humidity, Min Humidity, Max Sea Level PressureIn, Mean Sea Level PressureIn, Min Sea Level PressureIn, Max VisibilityMiles, Mean VisibilityMiles, Min VisibilityMiles, Max Wind SpeedMPH, Mean Wind SpeedMPH, Max Gust SpeedMPH,PrecipitationIn, CloudCover, Events, WindDirDegrees
2012-9-1,80,74,67,72,63,58,87,70,52,30.11,30.07,30.01,10,10,8,10,3,13,0.00,1,,15
2012-9-2,82,75,67,62,59,56,76,59,42,30.05,30.02,29.98,10,10,10,17,6,22,0.00,4,,54
2012-9-3,90,79,68,72,68,58,84,68,52,29.99,29.95,29.90,10,9,6,16,8,23,T,2,,136
2012-9-4,83,76,69,73,69,66,90,78,65,29.92,29.85,29.80,10,8,2,15,9,21,0.21,7,Rain,38
2012-9-5,79,72,65,68,66,63,100,84,67,29.90,29.87,29.82,10,8,5,10,3,15,0.00,4,,30
2012-9-6,79,73,66,70,66,63,90,76,62,29.91,29.87,29.81,10,8,6,13,6,18,0.00,1,,241
2012-9-7,84,74,64,67,62,56,93,67,40,29.91,29.85,29.67,10,7,5,17,8,23,0.00,1,,199
2012-9-8,74,68,61,66,60,51,93,74,55,29.81,29.62,29.48,10,6,2,30,10,38,1.01,7,Rain-Thunderstorm,246
2012-9-9,69,63,56,56,52,45,100,74,48,30.04,29.91,29.82,10,8,1,15,7,20,0.72,6,Rain,317
2012-9-10,68,58,48,49,45,42,86,64,42,30.21,30.16,30.05,10,10,10,12,6,18,0.00,0,,292
2012-9-11,76,64,51,55,48,45,77,57,36,30.29,30.24,30.20,10,10,10,15,7,20,T,0,,189
2012-9-12,81,69,57,63,51,47,73,55,36,30.30,30.26,30.23,10,9,7,13,7,17,0.00,0,,185
2012-9-13,83,72,61,61,57,52,76,60,43,30.31,30.25,30.19,10,10,9,13,7,16,0.00,1,,202
2012-9-14,76,64,51,63,56,44,90,69,48,30.25,30.19,30.14,10,8,2,17,8,24,0.33,5,Rain,296
2012-9-15,68,59,49,54,48,45,93,68,42,30.28,30.24,30.18,10,10,10,14,8,21,0.00,2,,251
2012-9-16,72,61,50,53,49,45,83,64,44,30.19,30.13,30.07,10,10,10,14,7,18,0.00,1,,218
2012-9-17,75,65,55,52,49,46,80,59,38,30.07,29.98,29.81,10,10,10,17,9,22,0.00,1,,178
2012-9-18,70,62,54,63,56,45,93,74,55,29.87,29.65,29.52,10,8,2,22,12,31,0.22,8,Rain,256
2012-9-19,62,56,50,45,40,36,74,57,40,30.15,30.07,29.87,10,10,10,17,9,25,0.00,3,,268
2012-9-20,72,60,48,48,42,39,71,54,37,30.10,29.99,29.89,10,10,10,25,14,32,0.00,3,,175
2012-9-21,71,63,55,57,50,43,73,58,42,29.94,29.91,29.79,10,10,10,20,8,28,0.12,5,Rain,213
2012-9-22,61,55,49,54,52,42,93,77,60,30.01,29.79,29.69,10,6,0,16,6,26,1.34,8,Fog-Rain,225
2012-9-23,59,53,46,46,43,36,86,67,47,30.18,30.12,30.01,10,10,10,18,8,25,0.15,7,Rain,230
2012-9-24,61,53,44,44,40,36,92,66,40,30.22,30.13,30.01,10,10,4,21,11,28,0.12,4,Rain,202
2012-9-25,69,61,52,54,44,37,80,63,45,30.04,30.00,29.94,10,10,10,23,14,30,T,5,,187
2012-9-26,65,62,58,63,59,54,93,86,78,30.12,30.00,29.94,10,6,2,15,8,21,0.09,8,Rain,203
2012-9-27,62,55,48,52,47,42,83,67,51,30.23,30.18,30.13,10,10,10,15,8,20,0.00,3,,55
2012-9-28,61,55,48,50,48,44,86,71,55,30.14,30.11,30.08,10,10,10,15,5,18,0.00,5,,340
2012-9-29,62,55,47,50,46,42,96,76,55,30.08,30.02,29.94,10,10,9,9,5,15,0.01,2,Rain,233
2012-9-30,62,55,47,49,46,43,93,72,51,29.94,29.91,29.89,10,10,9,16,6,21,T,3,Rain-Thunderstorm,97